Date,TemperatureHighF,TemperatureAvgF,TemperatureLowF,DewpointHighF,DewpointAvgF,DewpointLowF,HumidityHigh,HumidityAvg,HumidityLow,PressureMaxIn,PressureMinIn,WindSpeedMaxMPH,WindSpeedAvgMPH,GustSpeedMaxMPH,PrecipitationSumIn
2013-1-1,20.0,7.5,-3.0,12.0,2.5,-6.0,93,80,52,0.00,40.00,10,4,16,0.00
2013-1-2,26.0,9.2,-6.0,10.0,2.3,-9.0,89,74,44,0.00,40.00,8,4,13,0.00
2013-1-3,21.0,-0.2,-13.0,4.0,-6.9,-15.0,87,75,42,0.00,40.00,11,5,15,0.00
2013-1-4,24.0,3.1,-9.0,10.0,-3.6,-12.0,88,75,42,0.00,40.00,11,5,11,0.00
2013-1-5,25.0,5.4,-7.0,9.0,-1.2,-9.0,89,76,43,0.00,40.00,9,5,12,0.00
2013-1-6,30.0,9.8,-7.0,11.0,0.8,-10.0,88,70,32,0.00,40.00,9,5,12,0.00
2013-1-7,34.0,12.2,0.0,13.0,3.6,-3.0,90,71,33,0.00,40.00,9,5,12,0.00
2013-1-8,35.0,15.8,4.0,13.0,5.8,-1.0,85,67,35,0.00,40.00,9,4,11,0.00
2013-1-9,38.0,14.9,1.0,19.0,7.6,-1.0,92,75,39,0.00,40.00,10,5,13,0.00
2013-1-10,41.0,22.6,5.0,25.0,12.8,3.0,91,69,34,0.00,40.00,9,-3,16,0.00
2013-1-11,37.0,21.2,2.0,27.0,9.9,-4.0,96,64,28,0.00,40.00,16,5,22,0.00
2013-1-12,19.0,3.8,-11.0,5.0,-3.9,-15.0,86,73,34,0.00,40.00,11,5,15,0.00
2013-1-13,14.0,4.5,-7.0,6.0,-2.2,-11.0,87,74,50,0.00,40.00,9,4,14,0.00
2013-1-14,14.0,-1.4,-17.0,0.0,-8.0,-21.0,88,75,42,0.00,40.00,9,4,13,0.00
2013-1-15,15.0,-2.0,-18.0,-3.0,-10.8,-22.0,83,67,42,0.00,40.00,8,4,10,0.00
2013-1-16,27.0,7.4,-4.0,10.0,0.2,-8.0,90,74,45,0.00,40.00,10,4,12,0.00
2013-1-17,31.0,11.1,-3.0,18.0,5.3,-4.0,92,79,47,0.00,40.00,9,5,10,0.00
2013-1-18,38.0,10.8,-2.0,15.0,4.5,-3.0,93,78,36,0.00,40.00,9,5,12,0.00
2013-1-19,40.0,13.2,-1.0,14.0,4.6,-3.0,90,71,32,0.00,40.00,10,5,12,0.00
2013-1-20,39.0,13.9,0.0,13.0,4.1,-3.0,87,68,30,0.00,40.00,9,5,12,0.00
2013-1-21,42.0,15.6,1.0,14.0,5.0,-2.0,86,66,30,0.00,40.00,11,5,14,0.00
2013-1-22,40.0,15.2,0.0,11.0,3.3,-4.0,83,62,25,0.00,40.00,11,5,12,0.00
2013-1-23,42.0,18.4,0.0,14.0,5.4,-5.0,81,60,26,0.00,40.00,10,5,12,0.00
2013-1-24,26.0,16.8,13.0,15.0,10.2,7.0,79,75,61,0.00,40.00,9,4,12,0.00
2013-1-25,39.0,36.5,34.0,35.0,33.7,32.0,94,89,84,0.00,40.00,8,3,11,0.00
2013-1-26,43.0,34.8,28.0,33.0,31.1,27.0,96,87,52,0.00,40.00,9,2,12,0.00
2013-1-27,49.0,35.5,29.0,41.0,30.4,22.0,96,82,43,0.00,40.00,8,2,14,0.00
2013-1-28,37.0,29.2,18.0,32.0,26.7,17.0,95,90,65,0.00,40.00,14,5,22,0.30
2013-1-29,27.0,16.3,7.0,19.0,11.1,6.0,95,81,50,0.00,40.00,10,3,17,0.00
2013-1-30,24.0,16.0,5.0,18.0,12.7,3.0,93,87,72,0.00,40.00,8,3,12,0.00
2013-1-31,39.0,28.1,21.0,29.0,22.1,19.0,94,79,48,0.00,40.00,9,3,13,0.00
2013-2-1,39.0,26.8,17.0,24.0,19.6,14.0,90,75,47,0.00,40.00,11,4,16,0.00
2013-2-2,38.0,19.2,4.0,22.0,11.7,2.0,93,75,41,0.00,40.00,8,5,14,0.00
2013-2-3,40.0,21.2,10.0,19.0,11.4,5.0,90,69,30,0.00,40.00,12,5,21,0.00
2013-2-4,43.0,19.4,2.0,20.0,10.0,1.0,92,71,33,0.00,40.00,11,4,12,0.00
2013-2-5,44.0,21.3,6.0,22.0,12.6,4.0,92,72,32,0.00,40.00,12,5,17,0.00
2013-2-6,40.0,26.7,11.0,32.0,21.4,10.0,94,82,46,0.00,40.00,12,4,17,0.00
2013-2-7,40.0,26.0,11.0,26.0,15.8,4.0,95,69,27,0.00,40.00,9,4,12,0.00
2013-2-8,49.0,26.9,8.0,29.0,12.9,3.0,90,60,23,0.00,40.00,11,4,22,0.00
2013-2-9,35.0,26.4,11.0,33.0,23.3,7.0,96,88,53,0.00,40.00,14,3,22,0.10
2013-2-10,35.0,15.7,-1.0,15.0,7.3,-3.0,92,73,34,0.00,40.00,8,4,12,0.00
2013-2-11,31.0,16.8,5.0,21.0,11.6,3.0,90,81,42,0.00,40.00,17,4,22,0.00
2013-2-12,31.0,15.3,3.0,9.0,4.8,0.0,90,66,32,0.00,40.00,9,4,12,0.00
2013-2-13,39.0,25.2,15.0,19.0,14.3,9.0,81,65,37,0.00,40.00,9,3,12,0.00
2013-2-14,36.0,26.5,19.0,29.0,16.8,11.0,90,68,41,0.00,40.00,16,4,25,0.00
2013-2-15,35.0,22.7,11.0,20.0,11.6,5.0,88,64,38,0.00,40.00,14,4,23,0.00
2013-2-16,37.0,15.4,3.0,16.0,7.0,0.0,89,71,37,0.00,40.00,12,6,15,0.00
2013-2-17,51.0,27.6,9.0,26.0,11.0,1.0,91,57,14,0.00,40.00,17,5,24,0.00
2013-2-18,36.0,20.4,6.0,22.0,8.5,0.0,92,63,27,0.00,40.00,14,4,21,0.00
2013-2-19,42.0,18.6,-2.0,12.0,4.0,-5.0,86,58,23,0.00,40.00,9,5,13,0.00
2013-2-20,41.0,26.7,14.0,27.0,13.6,5.0,94,61,29,0.00,40.00,11,5,16,0.00
2013-2-21,34.0,27.1,19.0,26.0,21.8,16.0,95,81,51,0.00,40.00,12,4,18,0.00
2013-2-22,31.0,19.2,4.0,18.0,11.1,-1.0,91,72,38,0.00,40.00,12,5,19,0.00
2013-2-23,36.0,18.1,-1.0,22.0,10.0,-5.0,91,72,43,0.00,40.00,11,5,21,0.00
2013-2-24,30.0,21.5,9.0,22.0,16.0,4.0,95,80,54,0.00,40.00,15,4,24,0.00
2013-2-25,36.0,14.9,-3.0,11.0,4.4,-6.0,90,67,29,0.00,40.00,9,4,12,0.00
2013-2-26,27.0,18.8,6.0,20.0,13.5,3.0,92,80,52,0.00,40.00,13,5,22,0.00
2013-2-27,34.0,14.8,0.0,12.0,2.4,-4.0,92,63,24,0.00,40.00,10,5,13,0.00
2013-2-28,36.0,17.6,-4.0,20.0,3.6,-9.0,83,58,27,0.00,40.00,11,5,16,0.00
2013-3-1,41.0,29.2,21.0,31.0,22.4,18.0,90,77,47,0.00,40.00,11,4,16,0.00
2013-3-2,53.0,32.6,18.0,28.0,21.5,9.0,89,67,29,0.00,40.00,10,4,12,0.00
2013-3-3,49.0,35.4,23.0,34.0,24.5,19.0,95,68,33,0.00,40.00,11,4,21,0.00
2013-3-4,40.0,30.2,12.0,38.0,23.2,5.0,95,77,37,0.00,40.00,17,4,28,0.10
2013-3-5,45.0,20.5,2.0,13.0,6.0,-2.0,82,57,21,0.00,40.00,10,6,13,0.00
2013-3-6,60.0,33.7,14.0,22.0,13.5,7.0,76,49,13,0.00,40.00,10,4,18,0.00
2013-3-7,60.0,39.7,26.0,21.0,16.2,6.0,67,44,12,0.00,40.00,11,4,21,0.00
2013-3-8,53.0,38.1,27.0,31.0,22.4,17.0,91,56,24,0.00,40.00,9,4,16,0.00
2013-3-9,33.0,28.5,21.0,31.0,27.2,18.0,95,94,92,0.00,40.00,11,2,19,0.20
2013-3-10,42.0,22.8,5.0,23.0,15.0,4.0,95,75,35,0.00,40.00,8,4,12,0.00
2013-3-11,46.0,28.4,12.0,30.0,17.7,10.0,91,68,33,0.00,40.00,9,4,12,0.00
2013-3-12,51.0,38.1,28.0,33.0,25.0,19.0,91,64,29,0.00,40.00,12,3,18,0.00
2013-3-13,54.0,36.0,21.0,25.0,21.0,15.0,90,61,20,0.00,40.00,10,5,15,0.00
2013-3-14,61.0,38.1,21.0,26.0,21.4,16.0,87,57,20,0.00,40.00,9,5,12,0.00
2013-3-15,65.0,42.2,26.0,30.0,24.3,19.0,85,55,20,0.00,40.00,12,5,13,0.00
2013-3-16,47.0,40.6,32.0,39.0,32.6,27.0,94,73,56,0.00,40.00,11,4,19,0.00
2013-3-17,44.0,34.9,26.0,37.0,24.9,11.0,95,71,30,0.00,40.00,15,5,26,0.00
2013-3-18,45.0,34.2,25.0,17.0,12.8,9.0,65,42,26,0.00,40.00,16,4,25,0.00
2013-3-19,48.0,34.3,22.0,21.0,7.0,-11.0,76,40,9,0.00,40.00,11,4,21,0.00
2013-3-20,49.0,31.6,15.0,29.0,14.7,4.0,77,51,27,0.00,40.00,12,4,21,0.00
2013-3-21,39.0,33.9,23.0,37.0,29.8,20.0,95,85,53,0.00,40.00,20,3,31,0.30
2013-3-22,42.0,28.5,16.0,21.0,14.1,3.0,92,60,25,0.00,40.00,14,-1,25,0.00
2013-3-23,28.0,21.9,12.0,20.0,11.8,4.0,90,65,40,0.00,40.00,16,5,25,0.00
2013-3-24,29.0,15.2,2.0,15.0,3.9,-3.0,79,62,35,0.00,40.00,16,6,25,0.00
2013-3-25,40.0,17.8,-1.0,10.0,0.2,-7.0,77,51,19,0.00,40.00,12,6,14,0.00
2013-3-26,55.0,33.2,12.0,24.0,13.3,5.0,73,48,20,0.00,40.00,12,5,22,0.00
2013-3-27,58.0,42.4,29.0,30.0,22.2,11.0,89,50,19,0.00,40.00,12,4,23,0.00
2013-3-28,60.0,40.9,25.0,27.0,22.2,17.0,83,53,21,0.00,40.00,9,4,17,0.00
2013-3-29,59.0,44.4,34.0,31.0,27.0,23.0,78,52,27,0.00,40.00,11,4,20,0.00
2013-3-30,60.0,42.8,27.0,35.0,23.1,-99.9,94,55,20,0.00,40.00,15,5,25,0.00
2013-3-31,64.0,42.0,23.0,28.0,20.8,12.0,90,52,15,0.00,40.00,10,4,18,0.00
2013-4-1,62.0,43.6,29.0,39.0,26.9,22.0,82,55,27,0.00,40.00,18,-3,33,0.00
2013-4-2,53.0,40.5,30.0,33.0,29.1,24.0,90,66,33,0.00,40.00,17,5,25,0.00
2013-4-3,59.0,42.9,31.0,38.0,25.5,10.0,93,58,14,0.00,40.00,14,4,24,0.00
2013-4-4,66.0,45.5,26.0,29.0,22.8,18.0,85,48,17,0.00,40.00,11,4,21,0.00
2013-4-5,63.0,46.1,32.0,40.0,27.0,20.0,94,53,22,0.00,40.00,17,4,33,0.00
2013-4-6,58.0,44.2,32.0,45.0,28.7,17.0,95,63,21,0.00,40.00,13,3,21,0.00
2013-4-7,52.0,39.5,27.0,39.0,28.2,20.0,95,67,31,0.00,40.00,16,4,29,0.00
2013-4-8,63.0,45.0,30.0,37.0,26.0,11.0,90,52,16,0.00,40.00,15,5,32,0.00
2013-4-9,39.0,30.7,18.0,37.0,28.1,16.0,94,90,76,0.00,40.00,15,6,24,0.10
2013-4-10,37.0,24.3,13.0,18.0,13.9,11.0,91,67,39,0.00,40.00,15,4,20,0.00
2013-4-11,49.0,35.8,28.0,31.0,23.7,17.0,82,63,36,0.00,40.00,11,3,19,0.00
2013-4-12,57.0,39.8,29.0,37.0,23.9,9.0,94,62,16,0.00,40.00,14,4,22,0.00
2013-4-13,59.0,42.5,25.0,37.0,20.4,9.0,92,49,15,0.00,40.00,14,6,37,0.10
2013-4-14,45.0,35.9,21.0,32.0,22.7,9.0,95,64,24,0.00,40.00,14,3,25,0.00
2013-4-15,39.0,33.2,27.0,33.0,30.5,26.0,95,90,65,0.00,40.00,12,2,18,0.30
2013-4-16,61.0,37.4,22.0,38.0,27.1,19.0,95,72,20,0.00,40.00,18,5,29,0.00
2013-4-17,33.0,26.5,20.0,26.0,19.7,10.0,93,76,49,0.00,40.00,17,6,25,0.00
2013-4-18,33.0,23.8,13.0,14.0,9.0,3.0,90,56,31,0.00,40.00,17,5,26,0.00
2013-4-19,47.0,32.1,15.0,31.0,14.9,8.0,88,52,26,0.00,40.00,12,4,17,0.00
2013-4-20,50.0,37.9,31.0,37.0,31.0,25.0,94,79,40,0.00,40.00,14,3,22,0.10
2013-4-21,55.0,42.0,28.0,39.0,25.4,13.0,95,60,20,0.00,40.00,10,2,15,0.00
2013-4-22,53.0,43.3,31.0,31.0,23.7,13.0,86,48,24,0.00,40.00,15,6,27,0.00
2013-4-23,42.0,33.7,27.0,32.0,17.0,0.0,94,58,18,0.00,40.00,15,6,24,0.00
2013-4-24,51.0,35.1,20.0,16.0,8.2,-1.0,72,38,11,0.00,40.00,12,5,23,0.00
2013-4-25,63.0,42.2,24.0,22.0,15.2,7.0,77,41,12,0.00,40.00,14,4,28,0.00
2013-4-26,63.0,44.9,26.0,25.0,15.1,1.0,79,39,9,0.00,40.00,12,5,17,0.00
2013-4-27,67.0,46.1,23.0,26.0,18.2,10.0,77,40,12,0.00,40.00,11,5,19,0.00
2013-4-28,71.0,50.1,22.0,28.0,22.4,15.0,77,40,14,0.00,40.00,16,5,20,0.00
2013-4-29,74.0,55.8,35.0,33.0,26.2,18.0,73,36,14,0.00,40.00,17,6,28,0.00
2013-4-30,69.0,54.8,34.0,36.0,27.2,22.0,70,37,19,0.00,40.00,21,6,30,0.00
2013-5-1,49.0,36.6,27.0,38.0,28.8,21.0,94,74,47,0.00,40.00,17,5,24,0.20
2013-5-2,52.0,35.0,20.0,25.0,15.6,6.0,91,54,16,0.00,40.00,9,4,19,0.00
2013-5-3,65.0,42.4,21.0,23.0,15.0,3.0,83,43,9,0.00,40.00,10,5,18,0.00
2013-5-4,68.0,48.3,26.0,26.0,19.5,11.0,78,39,12,0.00,40.00,14,5,23,0.00
2013-5-5,68.0,52.8,36.0,31.0,24.4,15.0,70,36,14,0.00,40.00,13,6,22,0.00
2013-5-6,62.0,47.3,40.0,42.0,33.4,26.0,94,62,29,0.00,40.00,11,2,21,0.00
2013-5-7,51.0,41.1,33.0,43.0,33.1,21.0,94,77,35,0.00,40.00,13,3,20,0.00
2013-5-8,42.0,35.8,25.0,39.0,33.1,24.0,95,89,71,0.00,40.00,10,2,16,0.00
2013-5-9,63.0,41.9,29.0,38.0,32.0,24.0,94,73,26,0.00,40.00,8,2,17,0.00
2013-5-10,66.0,46.8,27.0,37.0,24.8,-99.9,94,52,18,0.00,40.00,9,4,19,0.00
2013-5-11,68.0,47.6,28.0,32.0,23.2,-99.9,90,48,14,0.00,40.00,12,5,21,0.00
2013-5-12,71.0,52.2,32.0,35.0,28.2,23.0,81,45,18,0.00,40.00,12,4,17,0.00
2013-5-13,68.0,41.6,28.0,37.0,29.5,22.0,86,66,28,0.00,40.00,10,5,12,0.00
2013-6-12,88.0,61.6,28.0,41.0,32.5,23.0,81,40,12,0.00,40.00,13,5,22,0.00
2013-6-13,81.0,62.5,46.0,45.0,35.9,30.0,66,40,18,0.00,40.00,13,5,27,0.00
2013-6-14,85.0,65.3,41.0,47.0,32.4,23.0,76,36,11,0.00,40.00,13,4,22,0.00
2013-6-15,80.0,56.3,26.0,37.0,30.6,20.0,80,43,18,0.00,40.00,16,5,29,0.00
2013-6-16,72.0,53.0,31.0,54.0,42.0,28.0,92,68,35,0.00,40.00,10,3,24,0.00
2013-6-17,76.0,54.9,32.0,44.0,32.0,20.0,95,52,13,0.00,40.00,14,4,27,0.00
2013-6-18,85.0,61.0,34.0,43.0,32.1,23.0,84,42,11,0.00,40.00,9,4,22,0.00
2013-6-19,81.0,58.7,34.0,31.0,22.1,12.0,67,31,9,0.00,40.00,12,5,30,0.00
2013-7-12,82.0,63.8,50.0,59.0,50.2,42.0,93,67,23,0.00,40.00,12,4,24,0.10
2013-7-13,84.0,67.3,53.0,57.0,48.9,44.0,93,59,24,0.00,40.00,14,4,20,0.00
2013-7-14,86.0,68.7,53.0,52.0,46.1,41.0,90,52,20,0.00,40.00,9,4,18,0.00
2013-7-15,84.0,70.8,49.0,58.0,46.4,42.0,89,47,25,0.00,40.00,7,2,19,0.00
2013-7-16,88.0,74.7,49.0,57.0,46.5,41.0,88,42,19,0.00,40.00,9,5,16,0.00
2013-7-17,89.0,69.1,51.0,59.0,51.7,44.0,90,60,21,0.00,40.00,14,4,21,0.00
2013-7-18,85.0,64.8,50.0,56.0,51.1,45.0,93,65,27,0.00,40.00,9,3,19,0.00
2013-7-20,80.0,78.4,78.0,45.0,45.0,45.0,30,30,29,0.00,40.00,9,7,12,0.00
2013-7-22,82.0,70.0,59.0,39.0,36.2,27.0,48,31,13,0.00,40.00,8,3,11,0.00
2013-7-23,48.0,48.0,48.0,35.0,35.0,35.0,60,60,60,0.00,40.00,4,4,7,0.00
2013-7-24,75.0,69.0,54.0,45.0,40.6,38.0,63,37,27,0.00,40.00,7,2,10,0.00
2013-7-25,67.0,67.0,67.0,43.0,43.0,43.0,41,41,41,0.00,40.00,0,0,6,0.00
2013-7-26,85.0,66.3,48.0,46.0,40.2,32.0,93,45,14,0.00,40.00,6,3,11,0.00
2013-7-27,61.0,58.0,54.0,44.0,43.3,40.0,61,58,49,0.00,40.00,6,3,14,0.00